Location: Cold Norton
(51.6667°N, 0.6667°E)
Time: 06:40:41
(UTC+00:00)

Geosat FO - Pass Details

Date: 18 November 2025
Orbit: 361 x 446 km, 108.0° (Epoch: 12 December)

Event Time Altitude Azimuth Distance (km) Brightness Sun altitude
Exits shadow 17:57:42 17° 159° (SSE) 1,010 6.1 -17.4°
Maximum altitude 17:59:43 66° 240° (WSW) 401 4.3 -17.7°
Drops below altitude 10° 18:02:33 10° 324° (NW) 1,360 7.2 -18.1°
Sets 18:04:29 0° 327° (NNW) 2,216 8.3 -18.4°
